Flag for Canada Weather past 2 weeks in Labrador City, Newfoundland and Labrador, Canada

Now
50 °F

Fog.


Feels Like: 49 °F
Forecast: 45 / 63 °F
Wind: 3 mph from Northeast

Location: Wabush Lake

Current Time: Aug 3, 2015 at 8:50:41 AM

Latest Report: Aug 3, 2015 at 8:00 AM


Visibility: 0 mi

Pressure: 29.77 "Hg (27.83 "Hg at 558m altitude)

Humidity: 100%

Dew point: 50 °F

Location of Labrador CityLocation

Historic Weather in Labrador City — Graph

°F

Labrador City temperature yesterday

Maximum temperature yesterday: 63 °F (at 6:00 PM)
Minimum temperature yesterday: 50 °F (at 11:00 PM)
Average temperature yesterday: 57 °F

Past Weeks' High & Low Weather Summary

 TemperatureHumidityPressure
High79 °F (Jul 30, 1:00 PM)100% (Jul 22, 2:00 AM)30.10 "Hg (Jul 22, 2:00 AM)
Low41 °F (Jul 25, 5:03 AM)38% (Jul 25, 5:00 PM)29.48 "Hg (Jul 31, 5:54 PM)
Average57 °F82%29.82 "Hg
* Reported Jul 19 7:00 AM — Aug 3 7:52 AM, Labrador City, Weather by CustomWeather, © 2015

Note: Actual official high and low records may vary slightly from our data, if they occured in-between our weather recording intervals... More about our weather records

Advertising

Labrador City weather history for previous 24 hours

 ConditionsComfort  
Time TempWeatherWind HumidityBarometerVisibility
7:52 AM
Mon, Aug 3
50 °FFog.2 mph94%29.78 "Hg0 mi
7:00 AM45 °FFog.No wind100%29.78 "Hg0 mi
6:00 AM43 °FFog.2 mph93%29.77 "Hg0 mi
5:00 AM43 °FFog.3 mph100%29.76 "Hg1 mi
4:00 AM43 °FFog.No wind100%29.76 "Hg1 mi
3:00 AM45 °FPassing clouds.3 mph100%29.75 "Hg15 mi
2:00 AM45 °FFog.2 mph100%29.75 "Hg2 mi
1:00 AM46 °FClear.No wind100%29.75 "Hg15 mi
12:00 AM48 °FPassing clouds.3 mph94%29.74 "Hg15 mi
11:00 PM
Sun, Aug 2
50 °FPassing clouds.No wind100%29.74 "Hg15 mi
10:00 PM55 °FScattered clouds.2 mph82%29.74 "Hg15 mi
9:00 PM59 °FScattered clouds.3 mph77%29.70 "Hg15 mi
8:00 PM63 °FScattered clouds.5 mph68%29.69 "Hg15 mi
7:00 PM63 °FScattered clouds.7 mph68%29.68 "Hg15 mi
6:00 PM63 °FBroken clouds.7 mph68%29.68 "Hg15 mi
5:00 PM61 °FSprinkles. Partly sunny.5 mph77%29.67 "Hg15 mi
4:00 PM59 °FSprinkles. Cloudy.12 mph82%29.67 "Hg15 mi
3:00 PM57 °FSprinkles. Mostly cloudy.9 mph88%29.67 "Hg10 mi
2:00 PM57 °FSprinkles. Cloudy.7 mph88%29.66 "Hg8 mi
1:00 PM57 °FSprinkles. Cloudy.8 mph88%29.65 "Hg15 mi
12:00 PM57 °FSprinkles. Mostly cloudy.9 mph88%29.64 "Hg12 mi
11:00 AM57 °FSprinkles. Mostly cloudy.5 mph94%29.63 "Hg10 mi
10:00 AM55 °FSprinkles. Mostly cloudy.6 mph94%29.63 "Hg8 mi
9:00 AM55 °FSprinkles. Fog.7 mph94%29.62 "Hg6 mi
8:00 AM55 °FSprinkles. Mostly cloudy.6 mph94%29.60 "Hg8 mi
Weather by CustomWeather, © 2015

See weather overviewHow to use our weather pages